Flag for U.S.A. Weather past 2 weeks in Wichita, Kansas, U.S.A.

Now
75 °F

Partly cloudy.


Feels Like: 76 °F
Forecast: 68 / 89 °F
Wind: 15 mph from East

Location: Wichita Mid-Continent Airport

Current Time: Sep 1, 2014 at 11:33:36 PM

Latest Report: Sep 1, 2014 at 10:53 PM


Visibility: 10 mi

Pressure: 29.84 "Hg

Humidity: 79%

Dew point: 68 °F

Location of WichitaLocation

Historic Weather in Wichita — Graph

°F

Wichita temperature yesterday

Maximum temperature yesterday: 99 °F (at 3:53 PM)
Minimum temperature yesterday: 71 °F (at 4:53 AM)
Average temperature yesterday: 84 °F

Past Weeks' High & Low Weather Summary

 TemperatureHumidityPressure
High102 °F (Aug 24, 3:53 PM)94% (Aug 30, 5:53 AM)30.08 "Hg (Aug 30, 5:53 AM)
Low64 °F (Aug 30, 5:53 AM)17% (Aug 23, 3:53 PM)29.60 "Hg (Aug 31, 8:53 PM)
Average83 °F58%29.85 "Hg
* Reported Aug 17 9:53 PM — Sep 1 9:53 PM, Wichita, Weather by CustomWeather, © 2014

Note: Actual official high and low records may vary slightly from our data, if they occured in-between our weather recording intervals... More about our weather records

Advertising

Wichita weather history for previous 24 hours

 ConditionsComfort  
Time TempWeatherWind HumidityBarometerVisibility
9:53 PM
Sep 1
76 °FPartly cloudy.18 mph77%29.83 "Hg10 mi
8:53 PM78 °FBroken clouds.22 mph71%29.80 "Hg10 mi
7:53 PM79 °FMostly cloudy.16 mph72%29.80 "Hg10 mi
6:53 PM82 °FPartly sunny.17 mph65%29.74 "Hg10 mi
5:53 PM84 °FPartly sunny.18 mph63%29.76 "Hg10 mi
4:53 PM86 °FPartly sunny.13 mph59%29.76 "Hg10 mi
3:53 PM86 °FBroken clouds.10 mph57%29.78 "Hg10 mi
2:53 PM85 °FPartly sunny.9 mph59%29.80 "Hg10 mi
1:53 PM82 °FMostly cloudy.7 mph65%29.82 "Hg10 mi
12:53 PM83 °FOvercast.9 mph61%29.82 "Hg10 mi
11:53 AM80 °FBroken clouds.14 mph62%29.83 "Hg10 mi
10:53 AM77 °FMostly cloudy.18 mph62%29.83 "Hg10 mi
9:53 AM74 °FBroken clouds.18 mph64%29.83 "Hg10 mi
8:53 AM70 °FPartly sunny.16 mph73%29.83 "Hg10 mi
7:53 AM69 °FPassing clouds.16 mph73%29.84 "Hg10 mi
6:53 AM68 °FPassing clouds.14 mph76%29.82 "Hg10 mi
5:53 AM67 °FPassing clouds.15 mph79%29.81 "Hg10 mi
4:53 AM67 °FMostly cloudy.12 mph79%29.81 "Hg10 mi
3:53 AM66 °FMostly cloudy.17 mph84%29.80 "Hg10 mi
2:53 AM66 °FPassing clouds.17 mph87%29.79 "Hg10 mi
1:53 AM66 °FThunderstorms. Mostly cloudy.17 mph87%29.79 "Hg10 mi
12:53 AM83 °FOvercast.9 mph57%29.73 "Hg10 mi
11:53 PM
Aug 31
84 °FPartly cloudy.10 mph53%29.69 "Hg10 mi
Weather by CustomWeather, © 2014

See weather overviewHow to use our weather pages